Home   Weather   41°44'N, 72°43'W   Past weeks
Flag for USA

Past Weather in 41°44'N, 72°43'W, USA — Yesterday and Last 2 Weeks

Now
65 °F

Sunny.


Feels Like: 65 °F
Forecast: 67 / 54 °F
Wind: 15 mph from Northwest

Location: Hartford-Brainard Airport

Current Time: May 21, 2019 at 7:28:16 pm

Latest Report: May 21, 2019 at 6:53 pm


Visibility: 10 mi

Pressure: 29.93 "Hg

Humidity: 37%

Dew Point: 38 °F

Location of 41°44'N, 72°43'WLocation

Past Weather in 41°44'N, 72°43'W — Graph

°F

41°44'N, 72°43'W Temperature Yesterday

Maximum temperature yesterday: 82 °F (at 12:53 pm)
Minimum temperature yesterday: 65 °F (at 5:53 am)
Average temperature yesterday: 71 °F

High & Low Weather Summary for the Past Weeks

 TemperatureHumidityPressure
High82 °F (May 20, 12:53 pm)97% (May 16, 5:39 am)30.38 "Hg (May 16, 5:39 am)
Low41 °F (May 14, 4:39 am)20% (May 8, 5:53 pm)29.67 "Hg (May 20, 3:53 pm)
Average57 °F68%29.95 "Hg
* Reported May 6 5:53 pm — May 21 5:53 pm, 41°44'N, 72°43'W. Weather by CustomWeather, © 2019

Note: Actual official high and low records may vary slightly from our data, if they occured in-between our weather recording intervals... More about our weather records

Advertising

41°44'N, 72°43'W Weather History for the Previous 24 Hours

Scroll right to see more
 ConditionsComfort  
Time TempWeatherWind HumidityBarometerVisibility
5:53 pm
Tue, May 21
66 °FPassing clouds.14 mph34%29.90 "Hg10 mi
4:53 pm68 °FSunny.14 mph32%29.88 "Hg10 mi
3:53 pm67 °FSunny.20 mph33%29.87 "Hg10 mi
2:53 pm67 °FSunny.18 mph35%29.85 "Hg10 mi
1:53 pm67 °FSunny.21 mph35%29.85 "Hg10 mi
12:53 pm65 °FSunny.20 mph39%29.85 "Hg10 mi
11:53 am62 °FPassing clouds.15 mph43%29.87 "Hg10 mi
10:53 am60 °FSunny.13 mph46%29.87 "Hg10 mi
9:53 am59 °FPassing clouds.17 mph46%29.87 "Hg10 mi
8:53 am57 °FScattered clouds.15 mph49%29.88 "Hg10 mi
7:53 am56 °FPartly sunny.14 mph53%29.89 "Hg10 mi
6:53 am56 °FPartly sunny.15 mph53%29.85 "Hg10 mi
5:53 am55 °FSunny.17 mph57%29.83 "Hg10 mi
4:53 am57 °FPassing clouds.9 mph55%29.80 "Hg10 mi
3:53 am57 °FPassing clouds.13 mph60%29.80 "Hg10 mi
2:53 am59 °FClear.10 mph58%29.78 "Hg10 mi
1:53 am61 °FClear.10 mph58%29.76 "Hg10 mi
12:53 am64 °FPassing clouds.10 mph56%29.77 "Hg10 mi
11:53 pm
Mon, May 20
66 °FPassing clouds.13 mph56%29.76 "Hg10 mi
10:53 pm69 °FClear.9 mph63%29.74 "Hg10 mi
9:53 pm70 °FClear.6 mph87%29.70 "Hg10 mi
8:53 pm67 °FClear.No wind93%29.67 "Hg8 mi
7:53 pm70 °FSunny.6 mph87%29.67 "Hg10 mi
Weather by CustomWeather, © 2019

See weather overview